Temp
8 8 8 9 9 10 9 6 4 10 9 5 2 4 9 11 11 10 11 11 10 9 9 4 2 3 3 7 8 7 7 6 6 8 10 8 9 9 10 10 10 10 10 10
8 8 8 8 8 9 8 4 4 9 9 4 4 8 10 10 10 10 10 10 11 11 10 8 8 6 8 7 8 7 7 5 6 8 9 10 8 9 9 9 9 10 11 10
8 8 8 8 8 9 9 3 3 4 3 3 7 9 9 10 10 11 10 10 10 10 10 9 9 9 9 9 8 10 7 6 8 8 8 10 9 10 10 9 10 10 10 10
7 7 8 8 8 9 9 2 4 4 3 6 7 8 9 9 9 10 9 10 9 9 9 8 9 8 7 8 9 8 6 6 6 8 8 8 9 9 10 9 9 10 10 10
7 7 8 8 9 9 8 4 5 3 3 5 7 6 9 9 9 9 9 9 9 9 9 8 8 8 8 8 7 3 5 6 6 7 9 9 9 10 10 10 10 10 10 10
7 7 7 8 8 9 7 4 4 4 5 5 6 6 8 8 9 9 9 9 8 8 8 8 7 7 7 7 8 7 6 5 6 5 8 9 9 10 10 10 10 9 10 10
6 7 7 7 7 8 8 6 5 4 7 5 6 8 8 8 8 8 9 8 8 9 7 6 6 5 5 5 5 6 7 6 7 5 7 9 11 10 11 10 10 10 10 10
6 6 6 7 7 7 7 6 5 3 6 5 6 7 7 7 7 7 8 8 8 6 7 7 7 8 9 9 7 5 6 7 6 5 3 8 11 10 10 10 10 10 9 9
6 6 5 6 6 6 7 6 6 4 4 5 7 7 7 5 5 5 7 8 7 7 5 7 8 7 9 10 9 7 6 6 6 7 7 8 12 10 10 11 9 9 9 8
6 6 6 6 6 6 6 6 6 5 4 3 5 5 6 4 4 4 4 6 7 6 5 7 6 7 8 8 9 9 7 6 6 6 7 8 9 10 10 11 11 9 9 7
6 6 6 6 6 6 6 6 6 5 2 2 4 5 5 4 3 5 5 5 5 5 6 6 6 6 6 7 7 7 7 6 5 6 7 7 8 9 10 9 8 8 8 7
7 6 6 6 6 6 6 6 6 5 4 3 5 6 6 6 6 3 3 4 5 5 5 5 4 6 4 5 7 6 7 7 8 7 8 9 7 8 9 7 8 7 7 7
7 6 6 5 6 6 6 6 5 5 1 2 3 3 5 5 5 6 4 3 4 4 3 4 4 5 4 6 5 7 7 5 7 9 9 6 7 7 7 7 7 7 7 7
7 6 6 5 5 5 5 5 5 5 4 2 3 4 4 4 4 4 5 4 4 3 2 4 4 5 5 5 5 4 6 5 6 5 6 6 7 6 7 7 7 7 7 7
7 6 6 5 5 5 5 5 5 5 5 3 2 3 3 4 4 4 4 3 2 2 3 3 4 3 4 3 2 2 4 6 7 8 7 8 9 8 6 7 7 6 6 6
7 6 6 6 5 5 5 5 5 5 5 3 2 3 2 3 3 3 2 2 1 1 2 2 2 3 5 5 4 5 4 5 7 8 7 7 9 7 6 7 6 6 6 6
7 6 6 6 6 6 6 4 6 5 5 1 2 3 1 2 2 1 0 1 0 1 1 1 2 3 4 4 4 7 6 5 5 5 7 7 6 8 5 6 6 7 6 6
7 5 5 5 5 5 5 5 6 5 5 2 -1 2 1 2 1 1 -0 0 -0 0 1 1 2 2 2 4 7 8 7 6 5 4 4 6 7 6 5 5 5 5 4 3
6 4 4 5 5 4 4 5 5 4 4 2 0 -0 1 0 0 0 0 0 2 0 1 1 2 3 3 6 7 7 6 6 6 6 5 3 5 6 4 5 4 5 4 3
4 4 4 3 3 4 4 3 2 2 2 2 3 -0 0 0 0 1 0 0 1 1 1 1 2 3 5 6 6 7 7 4 4 4 5 4 3 4 4 5 5 6 4 3
3 3 3 2 3 3 3 3 4 4 4 3 3 3 -0 -0 1 1 1 -1 -1 0 1 0 0 0 1 4 4 4 4 4 3 5 6 5 5 5 5 4 4 4 3 3
3 3 2 2 2 2 3 4 3 4 4 2 2 -0 2 -0 -0 1 1 -0 1 1 1 -0 1 1 2 3 3 3 3 3 2 3 3 4 4 4 4 5 3 3 3 3
3 1 1 2 2 3 3 4 4 4 3 1 -0 -0 0 -1 0 0 1 1 -0 0 1 3 1 2 2 2 2 2 2 2 2 2 2 3 3 4 4 2 4 3 2 2
2 2 3 2 2 3 3 4 4 2 1 0 -1 -2 -1 0 0 0 0 1 -0 1 1 -1 -0 2 3 2 1 1 1 1 0 -0 1 1 2 2 3 3 2 1 -0 -0
2 2 3 3 2 -0 2 2 2 0 1 0 -1 -3 -2 -3 -2 0 0 1 1 1 0 -0 -2 2 2 1 1 -0 -0 -1 -1 -5 -4 -2 0 0 -0 1 2 1 -0 -1
2 2 3 1 2 -1 0 2 2 0 1 -0 -0 -0 -2 -2 -2 1 1 -2 0 1 -2 -2 -6 -4 -3 -2 -0 -1 -2 -2 -2 -1 -1 -1 -1 -1 -1 -1 -0 -0 -0 -1
2 3 2 2 1 4 3 2 3 2 3 3 1 -1 1 -3 -3 -0 -2 -3 -1 -1 -2 -3 -3 -2 -2 -4 -5 -4 -3 -3 -2 -1 -1 -1 -1 -1 -2 -3 -3 -1 -1 -0
Height
839 836 833 831 827 821 819 820 833 817 815 829 842 847 829 821 822 823 823 823 825 828 829 848 859 851 843 824 824 827 826 832 830 808 793 795 794 790 784 775 769 764 762 750
839 837 835 833 830 824 822 829 829 818 816 844 842 826 825 825 824 823 823 823 822 822 823 833 830 832 818 823 824 824 826 838 833 808 797 792 798 791 786 780 775 768 759 752
840 837 835 832 830 827 826 832 842 829 827 835 832 826 824 826 824 822 822 821 820 822 823 825 824 820 814 817 820 815 823 831 819 819 807 794 797 789 784 783 774 772 764 756
842 839 836 832 831 828 828 835 843 841 849 836 833 833 830 826 826 825 825 821 825 825 824 828 824 823 822 815 816 819 824 829 823 808 798 800 792 789 784 785 781 774 768 760
842 840 836 833 831 829 829 837 838 840 842 840 834 836 829 829 827 825 825 826 825 823 824 825 827 824 825 820 818 833 826 824 819 807 788 791 789 784 783 777 777 773 768 762
844 841 838 836 833 830 831 834 835 836 840 841 840 838 828 825 823 823 822 823 827 824 820 821 822 822 821 820 820 822 824 832 822 824 798 791 790 781 778 775 774 777 770 766
844 843 840 837 835 834 833 834 835 840 837 841 836 831 829 828 828 827 822 824 824 820 820 818 818 822 822 822 820 820 819 821 820 823 806 800 774 774 772 773 769 766 771 766
843 842 841 839 836 835 834 834 834 839 840 839 834 831 831 829 830 828 825 821 821 820 820 822 817 816 808 805 810 817 818 818 825 828 845 795 764 772 774 774 768 763 767 766
842 843 842 841 838 835 834 834 835 835 841 836 829 831 830 836 836 835 826 822 821 821 826 824 816 823 807 804 803 809 816 817 824 820 821 807 767 770 770 770 778 767 767 768
841 840 841 841 839 838 836 834 835 835 838 830 829 832 830 830 834 835 832 825 824 824 829 825 829 821 811 813 805 804 813 819 823 819 817 794 773 771 770 772 770 767 768 770
840 839 839 839 839 838 837 836 836 836 837 829 824 824 826 829 833 832 828 830 829 832 830 829 824 826 818 814 809 805 806 817 824 818 812 803 769 770 774 769 768 767 767 769
838 839 838 838 837 837 836 835 835 835 834 827 823 821 821 821 823 827 829 828 827 826 828 831 830 819 826 821 812 803 806 794 795 797 784 766 767 762 760 764 765 766 767 768
833 835 835 836 836 836 836 836 835 835 833 826 823 819 819 818 819 821 825 825 822 823 824 827 828 825 823 817 815 799 792 790 788 780 762 768 764 758 757 759 761 762 763 765
829 831 832 832 833 835 835 835 834 835 834 836 824 818 817 817 817 819 821 822 823 823 825 825 825 820 815 813 803 804 790 789 784 784 767 763 755 756 752 754 755 758 760 761
823 826 828 829 829 830 831 832 832 833 836 835 824 817 815 814 814 816 816 817 818 821 823 826 823 819 815 809 809 797 778 772 773 765 753 752 747 744 748 751 752 754 757 759
816 819 821 825 827 829 829 829 828 829 831 833 831 817 815 814 814 814 816 818 820 822 822 822 817 813 810 807 799 761 757 752 749 746 744 746 743 744 744 747 749 750 753 755
810 814 817 820 823 824 824 827 826 826 830 833 831 818 815 815 816 817 818 819 820 820 820 819 814 808 807 803 787 740 744 745 746 745 746 746 744 740 739 740 743 748 751 754
805 811 815 818 819 822 822 821 823 826 827 829 840 822 818 814 816 818 818 821 825 822 817 815 809 803 805 790 739 736 740 742 742 739 739 738 737 736 736 737 741 748 752 754
802 807 813 817 818 818 817 818 822 824 827 827 827 827 821 814 817 818 820 820 820 820 818 812 807 798 788 745 741 741 742 741 734 733 733 734 734 733 734 734 737 740 746 751
800 809 813 814 812 814 816 818 820 822 818 816 809 812 815 812 816 817 822 821 820 821 809 807 801 781 753 744 742 738 733 733 732 733 728 727 726 727 729 728 728 731 736 744
794 800 807 811 812 814 816 815 814 811 808 803 797 799 808 807 811 811 813 822 824 823 810 814 804 787 752 735 734 729 727 724 722 718 716 716 714 716 720 724 725 727 731 737
782 791 803 809 810 810 810 806 804 797 790 789 790 799 797 804 803 805 810 817 813 812 809 814 795 762 742 739 734 727 725 724 722 718 710 708 709 706 709 713 718 722 725 731
779 789 800 804 803 799 794 787 782 777 774 780 786 796 797 803 801 806 806 810 814 807 806 786 770 746 740 736 732 726 722 720 717 714 712 703 702 703 703 707 711 717 723 727
769 780 789 786 781 770 760 752 749 754 759 770 779 791 793 794 800 804 809 804 806 798 797 788 756 742 735 732 730 729 722 718 716 712 707 706 703 703 701 702 707 711 718 725
757 762 759 747 739 742 746 749 751 754 758 766 779 790 791 802 802 796 801 800 791 784 774 755 742 732 731 729 727 726 722 719 715 713 709 704 705 705 705 702 705 710 714 720
742 739 730 734 736 745 745 743 746 752 755 762 770 784 794 790 791 786 781 798 778 757 753 741 740 734 729 728 724 723 720 717 715 713 710 707 705 705 706 707 706 709 712 716
721 710 712 717 720 718 729 735 738 748 747 750 760 778 767 780 784 774 772 766 745 735 734 731 729 727 724 721 720 717 714 712 708 706 706 708 707 706 708 711 710 710 714 717
Wind_Speed
7 11 16 20 28 23 9 3 3 8 8 4 1 1 1 3 2 3 2 1 1 2 1 1 1 3 7 3 1 3 2 2 5 6 3 4 2 4 3 2 5 3 3 5
6 10 15 19 23 21 5 2 2 4 3 3 1 1 2 1 2 2 2 2 1 2 2 2 3 4 4 4 1 2 1 2 5 7 4 1 2 5 5 5 3 3 5 6
7 11 15 14 16 16 4 3 3 4 4 1 3 2 3 0 1 2 1 2 2 2 2 3 4 3 3 2 3 3 3 2 4 3 7 2 5 7 4 4 3 7 5 12
7 12 13 12 13 10 2 3 1 3 2 4 2 1 1 3 1 1 2 2 2 2 2 3 2 3 5 2 1 2 2 3 4 9 14 6 6 5 6 3 6 3 12 12
9 10 12 12 12 7 4 3 3 2 0 2 2 3 2 2 2 3 2 2 2 2 3 5 4 1 3 4 4 1 0 3 4 5 5 0 5 7 6 1 3 3 10 6
9 10 9 10 11 5 3 2 1 3 1 1 2 3 3 4 2 3 3 4 2 4 5 5 7 6 4 4 2 2 1 2 4 5 7 6 3 4 3 3 3 3 4 5
9 8 7 9 11 10 3 2 3 3 2 2 4 2 2 3 3 3 3 2 2 2 4 4 3 4 8 7 8 6 2 3 1 4 7 4 4 2 3 4 7 5 4 6
8 7 7 6 8 9 4 2 2 3 2 2 3 3 4 3 4 3 3 3 3 2 4 3 3 2 2 4 5 7 6 1 2 2 1 7 1 2 2 2 5 3 4 5
8 7 7 6 5 6 3 2 1 3 3 4 0 2 1 2 2 5 4 3 2 3 2 2 1 2 2 3 4 3 4 1 3 2 1 3 3 1 1 2 4 3 1 6
9 8 7 6 6 5 4 1 2 0 1 3 4 3 4 4 1 2 3 4 2 3 1 1 2 3 3 2 3 4 2 2 4 4 4 8 5 3 1 2 4 2 2 2
11 9 7 6 4 5 4 2 1 1 2 5 6 4 4 2 2 2 2 3 2 2 1 1 2 2 3 1 4 4 6 4 4 3 3 6 5 3 5 4 2 3 2 4
12 10 9 6 3 6 3 2 3 3 4 4 5 9 9 5 3 4 0 3 3 4 1 1 2 3 1 3 3 1 3 6 3 8 6 4 6 7 5 5 5 4 5 4
13 11 8 6 3 7 6 4 4 4 2 4 2 4 5 9 11 8 3 2 2 1 2 2 1 4 3 3 5 3 5 3 4 1 4 8 10 7 6 6 7 6 5 6
15 12 9 7 7 8 7 4 3 3 1 1 4 2 2 2 6 9 6 1 2 3 1 1 2 2 3 3 5 4 5 6 5 6 8 7 11 9 7 8 5 6 5 7
16 13 10 9 7 8 7 10 10 7 2 2 4 7 3 5 7 8 7 6 3 2 1 2 3 2 1 3 2 5 7 8 6 8 9 5 5 3 8 8 9 9 8 5
19 15 11 9 7 7 5 2 6 13 7 1 3 1 3 4 5 6 6 5 2 2 3 3 3 3 2 3 4 8 7 5 6 4 6 7 3 5 5 10 8 8 8 6
21 17 12 8 6 11 4 4 1 8 10 1 4 4 1 3 2 1 1 2 1 2 2 3 3 2 4 3 4 6 8 10 8 7 1 5 7 6 8 8 9 15 10 12
23 16 10 8 9 8 5 6 4 11 3 3 2 4 3 5 2 1 1 2 1 2 2 2 3 1 2 5 18 12 4 5 8 10 9 10 3 3 7 8 8 8 7 6
24 17 11 7 5 5 5 8 9 11 4 2 3 3 4 2 1 1 1 1 2 1 3 3 2 3 6 12 7 8 6 6 7 4 4 7 11 8 9 10 10 12 9 8
24 17 5 2 4 8 11 4 2 1 2 2 4 2 2 4 2 2 2 0 2 2 4 1 3 4 17 17 16 17 15 11 8 8 9 5 6 10 9 14 14 15 13 11
13 7 3 6 12 4 1 2 3 3 3 4 3 7 4 3 3 3 3 3 1 2 3 3 3 4 5 8 8 9 9 8 11 14 17 10 8 8 11 10 12 14 18 14
17 17 11 6 3 2 4 4 3 6 5 4 6 4 3 2 2 2 2 3 2 5 1 0 4 5 8 7 9 10 7 8 9 9 13 13 13 10 11 12 12 17 22 23
20 6 4 3 3 6 7 10 5 5 5 5 4 3 4 1 1 3 3 4 5 1 2 5 5 4 6 7 7 9 7 7 8 10 13 11 13 15 14 8 17 21 21 26
3 7 7 7 6 7 7 7 5 4 4 8 4 3 3 2 3 3 4 4 2 3 5 7 3 5 6 6 5 6 11 9 9 9 7 8 6 8 16 20 23 24 20 26
5 6 8 11 5 3 3 3 3 2 8 6 4 3 2 1 3 4 3 3 6 6 5 4 4 5 4 5 6 7 9 9 8 4 5 3 7 6 7 18 24 23 24 26
5 6 5 2 6 2 3 7 3 4 7 3 3 3 3 5 4 6 10 5 8 4 4 4 2 4 4 4 6 7 7 6 6 9 8 5 6 7 9 16 22 24 28 27
7 6 5 6 3 8 6 4 6 9 7 4 4 7 10 3 3 5 6 6 4 4 4 3 5 5 6 6 6 7 7 6 6 4 4 5 5 8 12 6 15 23 26 28
Wind_Direction
24 3 358 1 360 9 27 62 49 347 356 53 84 66 349 346 38 15 336 280 286 229 232 281 245 243 213 184 354 325 218 165 278 257 277 224 244 302 295 299 311 272 274 293
342 350 349 347 356 7 12 63 278 338 7 106 22 213 46 86 38 32 29 334 76 300 265 325 207 223 256 192 150 232 162 278 322 349 358 89 358 314 340 300 264 280 320 314
305 327 339 343 350 357 20 78 16 332 41 18 106 110 140 193 308 199 343 250 30 4 328 237 291 297 302 153 194 246 166 229 219 225 237 310 308 326 351 330 320 311 324 323
322 335 343 343 351 0 53 37 269 168 300 346 37 40 256 161 235 316 20 122 83 269 262 320 295 315 314 305 318 108 135 261 205 255 258 237 245 287 328 356 320 347 318 335
329 341 346 349 2 14 70 121 119 18 317 315 344 353 230 228 253 187 251 245 278 245 233 204 234 129 253 265 331 70 90 272 344 284 319 330 258 255 289 270 318 308 315 317
327 342 355 2 10 22 87 108 118 106 295 40 76 232 250 236 185 241 228 205 260 253 234 208 232 223 219 233 293 290 338 6 358 276 317 315 313 233 227 273 206 242 315 295
320 328 350 7 14 32 67 101 110 85 252 165 211 252 235 260 258 276 248 214 199 260 334 278 228 219 243 228 234 197 269 332 154 278 336 7 235 214 234 256 262 237 257 285
311 315 326 348 8 15 15 72 141 122 277 232 293 245 240 309 308 279 259 244 229 355 9 336 357 327 280 230 221 195 186 148 326 321 247 285 342 190 223 174 297 206 269 309
309 305 316 318 335 357 18 35 58 116 117 249 280 194 240 226 250 325 270 320 341 43 56 25 294 194 280 317 350 110 123 103 123 307 351 260 255 212 139 108 282 192 359 333
305 297 300 299 301 324 350 300 359 152 170 252 153 193 194 154 138 222 294 312 352 44 51 255 193 266 188 250 253 192 207 167 195 225 260 280 245 155 117 20 257 186 102 18
296 296 289 297 306 291 328 305 296 318 219 272 197 199 166 135 133 168 274 20 346 35 306 207 249 214 243 206 230 199 193 170 197 163 222 282 166 103 172 215 182 180 141 145
285 292 292 286 266 258 289 271 262 278 213 251 245 238 233 210 183 149 205 190 205 216 130 236 311 282 261 200 268 163 247 193 194 185 219 244 206 213 215 174 176 197 171 182
266 276 279 277 256 250 255 281 298 289 357 304 342 253 247 231 229 221 162 259 224 216 172 173 220 262 130 242 239 238 246 181 217 18 249 229 229 238 252 193 199 184 178 170
254 262 263 256 245 234 250 241 245 277 69 298 284 268 244 224 213 212 221 159 108 100 80 208 226 232 167 249 272 219 216 148 206 263 284 300 263 223 215 214 195 176 172 173
243 248 253 252 243 231 239 250 258 243 232 255 277 297 235 200 189 194 198 194 153 142 130 177 235 242 245 242 288 245 185 204 175 224 220 188 259 243 194 195 197 188 167 169
233 235 242 252 242 219 229 291 240 224 207 72 305 296 213 168 179 185 189 187 139 125 168 215 245 258 197 267 255 245 221 236 205 237 198 199 232 262 207 198 196 183 176 170
227 222 229 230 200 195 179 187 192 178 183 105 306 294 304 168 106 64 78 178 199 159 217 227 215 247 197 243 246 248 225 230 253 258 345 260 181 226 201 191 184 185 182 183
219 207 209 198 185 189 194 181 157 164 159 118 243 268 331 178 169 185 152 115 1 252 259 299 215 246 184 255 241 266 296 293 261 249 218 234 297 196 190 165 147 158 173 166
204 176 170 173 208 207 186 177 192 200 210 216 181 195 242 115 118 104 57 119 222 268 255 252 165 211 224 239 266 280 247 237 266 275 259 241 232 220 202 176 179 179 178 168
168 142 157 217 193 150 141 125 138 220 218 232 229 156 236 142 146 153 117 203 228 248 238 151 230 255 260 272 281 281 271 241 245 278 263 223 225 210 198 201 190 188 179 168
155 149 156 134 143 145 174 194 203 171 235 218 218 194 160 214 139 185 189 187 183 282 268 164 269 271 250 235 266 267 268 253 230 233 257 252 222 207 198 200 196 183 171 177
156 125 116 137 170 186 194 203 204 206 230 194 166 193 192 169 155 118 172 167 162 244 150 205 262 256 254 284 293 307 312 296 285 255 250 246 241 203 197 196 186 181 176 170
120 99 133 171 180 205 207 193 201 199 190 169 152 141 152 141 152 93 141 173 219 78 205 235 233 265 288 289 314 312 308 303 299 301 278 249 242 215 184 179 182 173 166 169
134 151 180 202 192 224 200 198 173 185 126 144 125 119 148 135 137 144 173 222 145 224 232 234 248 246 264 306 306 317 313 318 314 310 298 275 232 216 193 185 176 165 161 169
161 165 211 214 200 162 190 143 117 128 140 127 99 66 98 122 127 191 124 205 238 219 230 230 225 231 270 289 311 315 317 318 319 309 296 260 230 193 189 184 180 173 161 162
163 215 214 191 161 154 171 184 132 160 146 105 82 126 123 217 167 170 207 165 221 239 221 234 237 238 257 264 285 283 276 281 292 306 311 281 215 190 194 182 175 172 167 164
206 217 177 171 165 195 169 151 157 167 157 166 135 170 211 108 178 215 191 206 211 216 231 222 221 231 247 247 248 250 276 276 267 280 287 272 237 182 153 166 176 176 176 177